Beckley, WV

1:03 AM EDT on July 22, 2017 (GMT -0400)
Raleigh County Memorial

Weather History for KBKW - January, 2014

Change the Weather History Date:

Tuesday, January 21, 2014

  Actual Average Record
Temperature  
Mean Temperature 23 °F 31 °F  
Max Temperature 35 °F 39 °F 71 °F (1906)
Min Temperature 11 °F 23 °F -22 °F (1985)
Degree Days  
Heating Degree Days 42 34  
Month to date heating degree days 735 714  
Since 1 July heating degree days 2773 2807  
Cooling Degree Days 0 0  
Month to date cooling degree days 0 0  
Year to date cooling degree days 0 0  
Moisture  
Dew Point 19 °F    
Average Humidity 78    
Maximum Humidity 92    
Minimum Humidity 64    
Precipitation  
Precipitation 0.35 in 0.09 in 1.48 in (1947)
Month to date precipitation 1.72 1.92  
Year to date precipitation 1.72 1.92  
Snow  
Snow 8.00 in - - ()
Month to date snowfall 12.6  
Since 1 September snowfall 25.9  
Snow Depth 1.00 in    
Sea Level Pressure  
Sea Level Pressure 29.74 in    
Wind  
Wind Speed 9 mph (NNW)    
Max Wind Speed 21 mph    
Max Gust Speed 28 mph    
Visibility 3 miles    
Events Fog , Snow    
T = Trace of Precipitation, MM = Missing Value Source: NWS Daily Summary

Daily Weather History Graph

Daily Weather History Graph

Search for Another Location

Airport or City:

Trip Planner

Search our weather history database for the weather conditions in past years. The results will help you decide how hot, cold, wet, or windy it might be!

Date:

Astronomy

Jan. 21, 2014 Rise Set
Actual Time 7:36 AM EST 5:35 PM EST
Civil Twilight 7:07 AM EST 6:04 PM EST
Nautical Twilight 6:35 AM EST 6:36 PM EST
Astronomical Twilight 6:04 AM EST 7:07 PM EST
Moon 11:00 PM EST (1/21) 10:11 AM EST (1/21)
Length of Visible Light 10h 56m
Length of Day
9h 59m
Waning Gibbous, 75% of the Moon is Illuminated
Jan 21
Waning Gibbous
Jan 24
Last Quarter
Jan 30
New
Feb 6
First Quarter
Feb 14
Full

Hourly Weather History & Observations

Time (EST) Temp. Windchill Dew Point Humidity Pressure Visibility Wind Dir Wind Speed Gust Speed Precip Events Conditions
12:51 AM 28.9 °F 25.2 °F 21.9 °F 75% 29.82 in 10.0 mi NE 3.5 mph - N/A   Clear
1:51 AM 30.0 °F - 24.1 °F 79% 29.78 in 10.0 mi Calm Calm - N/A   Mostly Cloudy
2:51 AM 30.0 °F - 24.1 °F 79% 29.75 in 10.0 mi Calm Calm - N/A   Mostly Cloudy
3:51 AM 33.1 °F 27.7 °F 25.0 °F 72% 29.70 in 10.0 mi ESE 5.8 mph - N/A   Overcast
4:51 AM 35.1 °F - 25.0 °F 67% 29.67 in 10.0 mi Calm Calm - N/A   Overcast
5:40 AM 30.9 °F 27.5 °F 25.0 °F 79% 29.64 in 4.0 mi Variable 3.5 mph - 0.00 in Snow Light Snow
5:51 AM 32.0 °F - 26.1 °F 79% 29.69 in 2.5 mi Calm Calm - 0.01 in Snow Light Snow
6:01 AM 30.9 °F - 26.1 °F 82% 29.64 in 1.0 mi Calm Calm - 0.00 in Snow Light Snow
6:06 AM 30.9 °F - 26.1 °F 82% 29.64 in 0.8 mi Calm Calm - 0.00 in Snow Light Snow
6:24 AM 28.9 °F 22.8 °F 26.1 °F 89% 29.64 in 0.5 mi North 5.8 mph - 0.03 in Fog , Snow Snow
6:35 AM 28.9 °F 23.9 °F 26.1 °F 89% 29.64 in 1.0 mi NNE 4.6 mph - 0.04 in Snow Light Snow
6:42 AM 28.9 °F 23.9 °F 26.1 °F 89% 29.64 in 0.5 mi North 4.6 mph - 0.05 in Fog , Snow Snow
6:51 AM 28.9 °F 23.9 °F 26.1 °F 89% 29.71 in 1.0 mi North 4.6 mph - 0.06 in Snow Light Snow
7:05 AM 28.9 °F 23.9 °F 26.1 °F 89% 29.65 in 3.0 mi NNE 4.6 mph - 0.01 in Snow Light Snow
7:51 AM 28.9 °F - 26.1 °F 89% 29.70 in 8.0 mi Calm Calm - 0.01 in   Overcast
8:51 AM 30.0 °F 26.5 °F 27.0 °F 88% 29.70 in 3.0 mi ESE 3.5 mph - 0.01 in Snow Light Snow
8:59 AM 30.0 °F 26.5 °F 27.0 °F 88% 29.62 in 2.0 mi East 3.5 mph - 0.00 in Snow Light Snow
9:24 AM 30.9 °F 27.5 °F 27.0 °F 85% 29.62 in 1.2 mi North 3.5 mph - 0.00 in Snow Light Snow
9:51 AM 30.9 °F - 28.0 °F 89% 29.68 in 3.0 mi Calm Calm - 0.01 in Snow Light Snow
10:19 AM 30.9 °F 27.5 °F 27.0 °F 85% 29.62 in 1.8 mi NNW 3.5 mph - 0.00 in Snow Light Snow
10:30 AM 30.9 °F 27.5 °F 28.0 °F 89% 29.61 in 1.2 mi North 3.5 mph - 0.00 in Snow Light Snow
10:51 AM 32.0 °F 26.4 °F 28.0 °F 85% 29.68 in 2.5 mi North 5.8 mph - 0.00 in Snow Light Snow
11:11 AM 30.9 °F 25.2 °F 27.0 °F 85% 29.61 in 1.0 mi NNE 5.8 mph - 0.00 in Snow Light Snow
11:51 AM 30.0 °F 21.1 °F 27.0 °F 88% 29.68 in 1.0 mi North 10.4 mph - 0.02 in Snow Light Snow
12:12 PM 28.9 °F 19.2 °F 25.0 °F 85% 29.59 in 0.2 mi North 11.5 mph - 0.00 in Fog , Snow Snow
12:23 PM 28.9 °F 18.6 °F 25.0 °F 85% 29.59 in 0.2 mi North 12.7 mph - 0.01 in Fog , Snow Snow
12:32 PM 28.0 °F 17.5 °F 25.0 °F 88% 29.59 in 0.5 mi NNW 12.7 mph - 0.01 in Fog , Snow Snow
12:51 PM 28.0 °F 18.6 °F 25.0 °F 88% 29.68 in 0.2 mi NNW 10.4 mph - 0.02 in Fog , Snow Snow
1:10 PM 28.0 °F 16.5 °F 24.1 °F 85% 29.60 in 0.5 mi North 15.0 mph - 0.02 in Fog , Snow Snow
1:23 PM 27.0 °F 16.7 °F 24.1 °F 89% 29.60 in 0.5 mi North 11.5 mph - 0.02 in Fog , Snow Snow
1:28 PM 27.0 °F 14.3 °F 23.0 °F 85% 29.60 in 0.2 mi NNW 17.3 mph - 0.02 in Fog , Snow Snow
1:51 PM 24.1 °F 10.1 °F 21.0 °F 88% 29.71 in 0.2 mi NNW 18.4 mph - 0.03 in Fog Light Freezing Fog
2:12 PM 24.1 °F 12.5 °F 19.9 °F 84% 29.62 in 0.2 mi North 12.7 mph - 0.02 in Fog , Snow Snow
2:51 PM 21.9 °F 6.9 °F 18.0 °F 85% 29.75 in 0.2 mi NNW 19.6 mph - 0.04 in Fog , Snow Snow
3:27 PM 21.0 °F 6.2 °F 16.0 °F 81% 29.67 in 0.5 mi NNW 18.4 mph 27.6 mph 0.29 in Snow Snow
3:34 PM 21.0 °F 7.6 °F 16.0 °F 81% 29.67 in 0.8 mi NNW 15.0 mph - 0.44 in Snow Light Snow
3:41 PM 21.0 °F 6.6 °F 15.1 °F 78% 29.68 in 1.0 mi NNW 17.3 mph 24.2 mph 0.44 in Snow Light Snow
3:51 PM 21.0 °F 8.1 °F 16.0 °F 81% 29.78 in 0.5 mi NNW 13.8 mph 23.0 mph 0.44 in Snow Snow
4:01 PM 19.9 °F 4.8 °F 15.1 °F 81% 29.69 in 1.2 mi NNW 18.4 mph 25.3 mph 0.00 in Snow Light Snow
4:12 PM 19.9 °F 6.7 °F 15.1 °F 81% 29.70 in 0.5 mi NNW 13.8 mph 27.6 mph 0.00 in Snow Snow
4:24 PM 19.9 °F 7.3 °F 15.1 °F 81% 29.71 in 0.5 mi NNW 12.7 mph - 0.00 in Snow Snow
4:32 PM 19.9 °F 7.9 °F 16.0 °F 85% 29.71 in 0.5 mi NNW 11.5 mph 21.9 mph 0.07 in Fog , Snow Snow
4:37 PM 19.0 °F 5.6 °F 15.1 °F 85% 29.72 in 0.2 mi NW 13.8 mph 20.7 mph 0.18 in Fog , Snow Heavy Snow
4:47 PM 19.4 °F 5.5 °F 15.8 °F 86% 29.73 in 0.5 mi NW 15.0 mph - 0.23 in Fog , Snow Snow
4:51 PM 18.0 °F 4.2 °F 14.0 °F 84% 29.83 in 0.5 mi NW 13.8 mph - 0.23 in Fog , Snow Snow
5:27 PM 17.1 °F 0.6 °F 12.0 °F 81% 29.76 in 1.0 mi NW 19.6 mph 25.3 mph 0.39 in Snow Light Snow
5:51 PM 17.1 °F 3.0 °F 12.0 °F 81% 29.89 in 2.0 mi NNW 13.8 mph 24.2 mph 0.46 in Snow Light Snow
6:08 PM 16.0 °F 1.7 °F 10.9 °F 81% 29.79 in 1.5 mi NW 13.8 mph 23.0 mph 0.08 in Snow Light Snow
6:36 PM 16.0 °F 0.1 °F 10.0 °F 77% 29.81 in 3.0 mi NNW 17.3 mph - 0.13 in Snow Light Snow
6:51 PM 15.1 °F -0.6 °F 10.0 °F 80% 29.94 in 2.5 mi North 16.1 mph - 0.15 in Snow Light Snow
7:06 PM 15.1 °F 2.5 °F 10.9 °F 84% 29.81 in 1.5 mi NNW 10.4 mph - 0.10 in Snow Light Snow
7:32 PM 14.0 °F -2.0 °F 9.0 °F 80% 29.82 in 3.0 mi North 16.1 mph 24.2 mph 0.13 in   Haze
7:46 PM 14.0 °F -0.8 °F 8.6 °F 79% 29.83 in 4.0 mi North 13.8 mph - 0.15 in   Haze
7:51 PM 14.0 °F 0.5 °F 9.0 °F 80% 29.95 in 4.0 mi North 11.5 mph - 0.18 in Snow Light Snow
7:58 PM 14.0 °F 1.2 °F 9.0 °F 80% 29.83 in 1.8 mi NNW 10.4 mph - 0.12 in Snow Light Snow
8:10 PM 14.0 °F -0.2 °F 9.0 °F 80% 29.83 in 2.0 mi NNW 12.7 mph - 0.23 in   Haze
8:20 PM 14.0 °F -0.2 °F 8.1 °F 77% 29.83 in 7.0 mi NNW 12.7 mph 21.9 mph 0.23 in   Overcast
8:51 PM 12.9 °F -3.4 °F 7.0 °F 77% 29.96 in 9.0 mi NNW 16.1 mph 21.9 mph 0.27 in Snow Light Snow
9:39 PM 12.9 °F 0.7 °F 8.1 °F 81% 29.85 in 1.8 mi NW 9.2 mph - 0.35 in Snow Light Snow
9:51 PM 12.9 °F -0.9 °F 8.1 °F 81% 29.97 in 1.0 mi NW 11.5 mph - 0.39 in Snow Light Snow
10:09 PM 12.9 °F -1.6 °F 7.0 °F 77% 29.85 in 3.0 mi NW 12.7 mph - 0.02 in Snow Light Snow
10:24 PM 12.0 °F -2.0 °F 7.0 °F 80% 29.85 in 5.0 mi NNW 11.5 mph - 0.14 in Snow Light Snow
10:51 PM 12.0 °F -4.5 °F 6.1 °F 77% 29.98 in 4.0 mi NW 16.1 mph - 0.16 in Snow Light Snow
11:51 PM 10.9 °F -4.1 °F 3.9 °F 73% 29.98 in 8.0 mi NW 12.7 mph - 0.27 in Snow Light Snow